Home   Weather   Tartu   Past weeks

Flag for Estonia Past Weather in Tartu, Estonia — Yesterday and Last 2 Weeks

Now
57 °F

Broken clouds.


Feels Like: 56 °F
Forecast: 46 / 56 °F
Wind: 7 mph from West

Location: Tartu/Ulenurme

Current Time: Sep 27, 2016 at 3:08:38 PM

Latest Report: Sep 27, 2016 at 1:50 PM


Visibility: N/A

Pressure: 30.33 "Hg

Humidity: 82%

Dew Point: 52 °F

Location of TartuLocation

Past Weather in Tartu — Graph

°F

Tartu Temperature Yesterday

Maximum temperature yesterday: 63 °F (at 1:50 PM)
Minimum temperature yesterday: 41 °F (at 8:50 AM)
Average temperature yesterday: 54 °F

High & Low Weather Summary for the Past Weeks

 TemperatureHumidityPressure
High70 °F (Sep 12, 1:50 PM)94% (Sep 13, 3:50 AM)30.36 "Hg (Sep 13, 3:50 AM)
Low39 °F (Sep 15, 3:50 AM)46% (Sep 13, 1:50 PM)29.89 "Hg (Sep 23, 12:50 PM)
Average52 °F76%30.10 "Hg
* Reported Sep 12 1:50 PM — Sep 27 1:50 PM, Tartu, Weather by CustomWeather, © 2016

Note: Actual official high and low records may vary slightly from our data, if they occured in-between our weather recording intervals... More about our weather records

Advertising

Tartu Weather History for the Previous 24 Hours

Scroll right to see more
 ConditionsComfort  
Time TempWeatherWind HumidityBarometerVisibility
1:50 PM
Tue, Sep 27
57 °FBroken clouds.7 mph82%30.33 "HgN/A
12:50 PM54 °FMostly cloudy.9 mph94%30.36 "HgN/A
11:50 AM54 °FLow clouds.8 mph94%30.36 "HgN/A
10:50 AM54 °FLow clouds.6 mph94%30.33 "Hg4 mi
9:50 AM52 °FFog.6 mph94%30.33 "Hg2 mi
8:50 AM50 °FFog.5 mph94%30.33 "Hg1 mi
2:50 AM50 °FFog.7 mph94%30.33 "Hg0 mi
1:50 AM45 °FQuite cool.3 mph87%30.33 "HgN/A
12:50 AM46 °FCool.2 mph87%30.33 "HgN/A
11:50 PM
Mon, Sep 26
45 °FPassing clouds.1 mph93%30.33 "HgN/A
10:50 PM46 °FPassing clouds.2 mph87%30.33 "HgN/A
9:50 PM45 °FQuite cool.2 mph87%30.33 "HgN/A
8:50 PM46 °FCool.3 mph87%30.33 "HgN/A
7:50 PM50 °FCool.No wind82%30.30 "HgN/A
6:50 PM54 °FCool.3 mph77%30.30 "HgN/A
5:50 PM59 °FPassing clouds.3 mph63%30.30 "HgN/A
4:50 PM61 °FScattered clouds.7 mph59%30.30 "HgN/A
3:50 PM61 °FScattered clouds.5 mph59%30.30 "HgN/A
Weather by CustomWeather, © 2016

See weather overviewHow to use our weather pages